{"data":{"norad_id":48776,"epoch":"2026-09-19T22:01:48.379584Z","epoch_age_seconds":68530,"freshness":"FRESH","line1":"1 48776U 21045K   26262.91792106  .00000116  00000+0  27396-3 0  9994","line2":"2 48776  87.8996 240.3025 0002041  80.0388 280.0973 13.15551766257420","mean_motion":13.15551766,"eccentricity":0.0002041,"inclination_deg":87.8996,"raan_deg":240.3025,"arg_perigee_deg":80.0388,"mean_anomaly_deg":280.0973,"bstar":0.00027396,"rev_number":25742,"period_min":109.45977476648,"perigee_km":1200.2113575658,"apogee_km":1203.3054708739,"semimajor_km":7579.8954142199,"source":"CELESTRAK","updated_at":"2026-09-20T09:00:44.616777Z"}}